www.pogodaiklimat.ru

Погода и климат >> Архив погоды >> Россия >> Карелия >> Сортавала


АРХИВ ПОГОДЫ в Сортавале

Время (UTC), дата Ветер
(напр.,м/с)
 
Видим.   Явления Облачность Т
(С)
Тd
(С)
f
(%)
Тe
(С)
Тes
(С)
Комфортность P
(гПа)
Po
(гПа)
Тmin
(С)
Tmax
(С)
R
(мм)
R24
(мм)
S
(см)
18 14.08 Ю 1 13 км слаб. ливневой дождь {гроза} 9/5 600 м
[Cb cap Ac trans Ci fib]
+14.4 +13.1 92 +15 +15 1007.2 1005.0 +19.6 9
21 14.08 штиль 0 6000 м туман поземный {ливн. осадки} 9/0
[Ac trans Ci fib]
+11.2 +10.6 96 +10 +10 1007.1 1004.8
00 15.08 штиль 0 4500 м туман поземный {ливн. осадки} 9/0
[Ac trans Ci fib]
+8.5 +8.0 97 +8 +8 1006.6 1004.3
03 15.08 штиль 0 600 м туман 9/0
[Ac trans Ci fib]
+8.9 +8.4 97 +8 +8 1006.4 1004.1 +7.8 0.7
06 15.08 ЮЗ 1 19 км {туман} 9/0
[Ac trans Ci sp]
+13.5 +11.9 90 +14 +17 1005.9 1003.7 +7.8 0.7
09 15.08 З 3 50 км 8/6 840 м
[Cb cap Ac trans Ci sp]
+17.4 +10.5 64 +17 +20 1005.4 1003.2
12 15.08 З 2
{11}
10 км гроза, ливневой дождь 9/8 700 м
[Cb cap Ac trans]
+13.3 +11.5 89 +13 +14 1006.0 1003.8
15 15.08 ЮЗ 2 50 км {гроза} 9/3 600 м
[Cb cap Ac trans Ci sp]
+16.7 +11.0 69 +17 +18 1006.6 1004.4 4
18 15.08 З 1 40 км {гроза, ливн. осадки} 9/3 600 м
[Cb cap Ac trans Ci fib]
+14.3 +9.5 73 +15 +15 1007.8 1005.6 +19.1 4
21 15.08 З 2 30 км 9/8 1230 м
[Sc Ac trans Ci fib]
+13.4 +10.6 83 +13 +13 1009.2 1007.0
00 16.08 З 1 30 км 8/6 1350 м
[Sc Ac trans]
+12.8 +10.3 85 +13 +13 1010.2 1008.0
03 16.08 ЮЗ 1 40 км 6/3 1000 м
[Sc Ac trans]
+11.8 +9.6 86 +12 +12 1011.4 1009.1 +10.9
06 16.08 З 3 50 км 3/0
[Ac lent]
+15.8 +10.2 69 +15 +18 1012.6 1010.4 +10.9
09 16.08 З 5 50 км 6/6 1000 м
[Cu hum]
+19.4 +8.4 49 +20 +22 1013.2 1011.0
12 16.08 З 3 50 км 8/8 1000 м
[Cu hum]
+20.5 +6.9 41 +22 +23 комфорт 1013.8 1011.6
15 16.08 ЮЗ 1 50 км 3/3 1000 м
[Cu hum]
+20.0 +8.0 46 +22 +24 комфорт 1014.0 1011.8
18 16.08 Ю 1 50 км ясно +14.5 +10.3 76 +15 +15 1015.1 1012.9 +21.3
21 16.08 штиль 0 30 км туман поземный ясно +9.8 +8.9 94 +9 +9 1016.3 1014.0
00 17.08 штиль 0 40 км 6/0
[Ac trans]
+8.1 +7.3 95 +7 +7 1017.2 1014.9
03 17.08 штиль 0 2500 м дымка {туман} 3/0
[Ci fib]
+7.9 +7.3 96 +7 +7 1017.7 1015.4 +6.6
06 17.08 В 1 50 км {туман} 1/0
[Ac trans]
+16.2 +12.5 79 +17 +21 1018.2 1016.0 +6.6
09 17.08 Ю 2 50 км 3/0
[Ac trans]
+19.7 +12.6 64 +22 +29 комфорт 1018.3 1016.1
12 17.08 Ю 3 50 км 4/1 1000 м
[Cu hum Ci fib]
+20.4 +11.7 57 +23 +28 комфорт 1018.2 1016.0
15 17.08 Ю 3 50 км ясно +19.0 +10.5 58 +20 +22 1017.7 1015.5
18 17.08 СВ 1 50 км 3/0
[Ci fib]
+13.6 +10.0 79 +14 +14 1017.9 1015.6 +20.7
21 17.08 штиль 0 40 км ясно +9.9 +9.0 94 +9 +9 1017.9 1015.6
00 18.08 СВ 1 40 км ясно +9.1 +8.5 96 +8 +8 1018.0 1015.7
03 18.08 штиль 0 22 км туман поземный ясно +8.7 +8.2 97 +8 +8 1017.5 1015.2 +8.5
06 18.08 В 1 50 км 3/0
[Ac trans]
+16.3 +10.3 68 +17 +21 1017.4 1015.2 +8.5
09 18.08 Ю 4 50 км 3/1 1000 м
[Cu med, cong Ac trans]
+19.9 +9.0 49 +21 +26 комфорт 1016.8 1014.6
12 18.08 Ю 3 50 км 9/1 1000 м
[Cu med, cong Ci fib]
+21.2 +7.5 41 +22 +27 комфорт 1015.6 1013.4
15 18.08 ЮЗ 2 50 км 9/1 1000 м
[Cu med, cong Ci fib]
+20.9 +7.2 41 +23 +24 комфорт 1014.6 1012.4
18 18.08 штиль 0 50 км 6/3 1000 м
[Sc Ac trans Ci fib]
+14.2 +10.0 76 +14 +14 1014.0 1011.8 +21.8
21 18.08 штиль 0 30 км 5/0
[Ci fib]
+10.7 +9.5 92 +10 +10 1013.5 1011.2
00 19.08 штиль 0 17 км туман поземный 5/0
[Ac trans Ci fib]
+8.7 +7.9 95 +8 +8 1013.0 1010.7
03 19.08 штиль 0 18 км туман поземный 9/0
[Ac trans Ci fib]
+9.5 +8.9 96 +9 +9 1012.5 1010.2 +7.7
06 19.08 Ю 1 30 км 8/0
[Ac trans Ci fib]
+17.5 +13.5 77 +19 +22 1011.8 1009.6 +7.7
09 19.08 ЮВ 4 50 км 9/6 400 м
[Cb cap Ac trans]
+17.9 +14.8 82 +18 +19 1011.2 1009.0
12 19.08 ЮВ 4 50 км 10/10 450 м
[Cb cap]
+17.2 +14.0 81 +17 +17 1011.5 1009.3
15 19.08 ЮВ 3 9000 м слаб. ливневой дождь 10/8 1020 м
[Cb cap Ac und]
+16.1 +14.3 89 +16 +16 1011.1 1008.9 0.8
18 19.08 Ю 1 30 км {ливн. осадки} 10/8 1000 м
[Cb cap Ac und]
+16.6 +14.8 89 +17 +17 1011.2 1009.0 +19.4 0.9
21 19.08 штиль 0 14 км 10/10 1320 м
[Sc]
+15.1 +14.3 95 +15 +15 1011.8 1009.6
00 20.08 штиль 0 1500 м туман поземный 4/4 1000 м
[Sc]
+13.0 +12.4 96 +12 +12 1012.7 1010.5
03 20.08 З 2 8000 м туман поземный 6/4 600 м
[Cb cap Ac trans]
+14.3 +13.7 96 +14 +14 1014.2 1012.0 +12.6
06 20.08 СЗ 1 50 км 10/10 480 м
[Cb cap]
+16.0 +13.8 87 +17 +17 1016.1 1013.9 +12.6
09 20.08 Ю 2 50 км 9/8 600 м
[Cb cap Ci fib]
+18.8 +14.3 75 +20 +22 1017.5 1015.3
12 20.08 З 3 50 км 8/4 600 м
[Cu med, cong Ci fib]
+21.9 +11.1 50 +24 +27 комфорт 1017.9 1015.7
15 20.08 Ю 3 50 км 9/8 1080 м
[Cb cap Ci fib]
+18.6 +13.2 71 +19 +20 1018.8 1016.6
18 20.08 ЮЗ 1 50 км 4/1 600 м
[Cb cap Ac trans Ci fib]
+16.5 +12.8 79 +17 +17 1019.0 1016.8 +22.7
21 20.08 ЮЗ 1 50 км 3/0
[Ci fib]
+16.4 +11.7 74 +17 +17 1019.8 1017.6
00 21.08 штиль 0 50 км 1/0
[Ac trans]
+12.7 +10.8 88 +12 +12 1020.7 1018.4
03 21.08 штиль 0 9000 м туман поземный 6/0
[Ac trans Ci fib]
+9.8 +9.2 96 +9 +9 1021.9 1019.6 +8.7
06 21.08 Ю 1 50 км 3/0
[Ci fib]
+16.7 +13.0 79 +18 +22 1022.4 1020.2 +8.7
09 21.08 Ю 3 50 км 9/8 800 м
[Cu hum Ci fib]
+18.9 +13.5 71 +20 +21 1022.5 1020.3
12 21.08 Ю 2 50 км 9/3 600 м
[Cu med, cong Cs]
+19.2 +13.8 71 +21 +25 комфорт 1022.3 1020.1

 

Местоположение метеостанции Сортавала (Карелия, Россия): широта 61.72 долгота 30.72 высота над уровнем моря 19 м.

В архиве по умолчанию представлена погода в Сортавале за последнюю неделю. Архивные данные за месяц целиком и за предыдущие месяцы, начиная с января 2011 года, Вы можете получить, выбрав интересующий диапазон дат из раскрывающегося списка и нажав кнопку "Ввод!".


*Определитесь, кто Вы:
робот инопланетянин человек

Внимание! Время в таблицах - всемирное. Для получения местного времени необходимо прибавить поправку, которая равна 3 ч.

Смотрите также архив погоды в соседних городах и на ближайших метеорологических станциях:

Погода на Валаам Острове (Карелия, Россия) (40 км)
Погода в Вяртсиле (Карелия, Россия) (51 км)
Погода в Тохмаярви (Финляндия) (61 км)
Погода в Париккала Коицанлахти (Финляндия) (74 км)
Погода в Лаукансаари (Финляндия) (74 км)
Погода в Суоярви (Карелия, Россия) (97 км)
Погода в Савонлинне (Финляндия) (97 км)
Погода в Липери Туискаванлуото (Финляндия) (107 км)
Погода в Йоэнсуу (Финляндия) (111 км)
Погода в Мекриярви (Финляндия) (118 км)

Пояснения к столбцам:

Ветер - указаны скорость ветра в м/с - средняя за 10 мин, порывы в срок и между сроками (в фигурных скобках) и направление, откуда дует ветер: С - северный, СВ - северо-восточный, В - восточный, ЮВ - юго-восточный, Ю - южный, ЮЗ - юго-западный, З - западный, СЗ - северо-западный.
Видимость - горизонтальная дальность видимости в метрах или километрах. При видимости от 1 до 10 км при отсутствии осадков обычно наблюдается дымка, при ухудшении видимости до 1 км и менее - туман. В сухую погоду видимость может ухудшаться дымом, пылью или мглою.
Явления - указаны атмосферные явления, наблюдавшиеся в срок или в последний час перед сроком; фигурными скобками обозначены явления, наблюдавшиеся между сроками (за 1-3 часа до срока); квадратными скобками обозначены град или гололедные отложения с указанием их диаметра в мм.
Облачность - указаны через наклонную черту общая и нижняя облачность в баллах и высота нижней границы облаков в метрах; квадратными скобками обозначены формы облаков: Ci - перистые, Cs - перисто-слоистые, Cc - перисто-кучевые, Ac - высококучевые, As - высокослоистые, Sc - слоисто-кучевые, Ns - слоисто-дождевые, Cu - кучевые, Cb - кучево-дождевые. Подробнее классификацию облаков см. в Атласе облаков (PDF).
T - Температура воздуха - температура, измеренная на высоте 2 м над землей.
Td - Температура точки росы - температура, при понижении до которой содержащийся в воздухе водяной пар достигнет насыщения.
f - Относительная влажность воздуха - влажноcть воздуха, измеренная на высоте 2 м над землей.
Te - Эффективная температура - температура, которую ощущает одетый по сезону человек в тени. Характеристика душности погоды. При расчете учитывается влияние влажности воздуха и скорости ветра на теплоощущения человека.
Tes - Эффективная температура на солнце - температура, которую ощущает человек, с поправкой на солнечный нагрев. Характеристика знойности погоды. Зависит от высоты солнца над горизонтом, облачности и скорости ветра. Ночью, в пасмурную погоду, а также при ветре 12 м/с и более поправка равна нулю.
P - Атмосферное давление - приведенное к уровню моря атмосферное давление.
Po - Атмосферное давление - измеренное на уровне метеостанции атмосферное давление.
Tmin - Минимальная температура - минимум температуры воздуха на высоте 2 м над землей.
Tmax - Максимальная температура - максимум температуры воздуха на высоте 2 м над землей.
R - Количество осадков - Количество выпавших осадков за период времени, мм. При наведении курсора мыши на число - период времени, за который выпало указанное количество осадков.
R24 - Количество осадков - Количество выпавших осадков за 24 часа, мм.
S - Снежный покров - Высота снежного покрова, см. При наведении курсора мыши на число - состояние снежного покрова и степень покрытия местности в баллах.